Location: Brookview Estates
(36.0476°N, 86.6931°W)
Time: 18:29:41
(UTC+00:00)

Hubble Space Telescope - Pass Details

Date: 15 July 2020
Orbit: 536 x 540 km, 28.5° (Epoch: 08 August)

Event Time Altitude Azimuth Distance (km) Brightness Sun altitude
Rises 03:08:57 0° 258° (WSW) 2,670 4.7 -20.7°
Reaches altitude 10° 03:11:41 10° 241° (WSW) 1,779 3.5 -21.0°
Enters shadow 03:13:11 16° 221° (SW) 1,429 2.8 -21.2°
